sat.trackr.live / text

‹ back to catalog

STARLINK-30082

NORAD 57509 · 2023-113Q

PAYLOAD ACTIVE UNKNOWN

§ Identity

Operator
Country
US
Launch date
2023-08-07
Launch site
AFETR
Launch vehicle
Mass (kg)
RCS (m²)

Purposes: comms

External: N2YO · Heavens-Above · Gunter

§ Orbital elements

Epoch: 2026-05-24T17:09:16.624800Z

Period
94.26 min
Inclination
43.0039°
Eccentricity
0.0002826
Mean motion
15.27609751 rev/d
Perigee alt
481.0 km
Apogee alt
484.9 km
Semi-major
6,861.1 km
B*
-4.9836e-4
RAAN
306.6015°
Arg perigee
264.8826°
Mean anomaly
95.1703°
Rev number
15,530

§ Raw data

STARLINK-300821 57509U 23113Q   26144.71477575 -.00013965  00000+0 -49836-3 0  99942 57509  43.0039 306.6015 0002826 264.8826  95.1703 15.27609751155304

JSON: /api/v1/satellites/57509 · /tle

For live sub-satellite position, see the globe view (requires WebGL).

§ Visibility from observer

Set your observer location to see the next 7 days of passes ≥ 10°. The values pass through the URL so the page stays shareable.

No JS? Fill the form by hand. The geolocation button needs JavaScript.